Location: Newark
(46.7000°N, 60.6000°W)
Time: 09:14:30
(UTC+00:00)

Transit 2A Rocket - Pass Details

Date: 28 October 2020
Orbit: 588 x 915 km, 66.7° (Epoch: 23 November)

Event Time Altitude Azimuth Distance (km) Brightness Sun altitude
Rises 12:22:52 0° 171° (S) 3,531 9.2 14.7°
Reaches altitude 10° 12:25:53 10° 157° (SSE) 2,597 9.1 15.1°
Maximum altitude 12:30:31 23° 108° (ESE) 1,824 8.5 15.7°
Drops below altitude 10° 12:35:03 10° 58° (ENE) 2,554 8.0 16.3°
Sets 12:37:59 0° 44° (NE) 3,459 8.4 16.6°
